TimeEST,TemperatureF,Dew PointF,Humidity,Sea Level PressureIn,VisibilityMPH,Wind Direction,Wind SpeedMPH,Gust SpeedMPH,PrecipitationIn,Events,Conditions,WindDirDegrees,DateUTC
12:19 AM,33.8,30.2,87,29.91,6.0,SSW,8.1,-,N/A,,Overcast,210,2013-02-23 05:19:00
12:52 AM,33.1,30.0,89,29.93,5.0,SW,6.9,-,N/A,,Overcast,220,2013-02-23 05:52:00
1:07 AM,33.8,30.2,87,29.91,6.0,WSW,10.4,-,N/A,,Overcast,250,2013-02-23 06:07:00
1:52 AM,33.1,28.9,85,29.93,8.0,WSW,10.4,-,N/A,,Overcast,240,2013-02-23 06:52:00
2:09 AM,32.0,28.4,87,29.90,7.0,WSW,9.2,-,N/A,,Overcast,240,2013-02-23 07:09:00
2:37 AM,32.0,28.4,87,29.91,5.0,West,10.4,-,N/A,,Overcast,270,2013-02-23 07:37:00
2:52 AM,30.9,28.0,89,29.93,7.0,WSW,12.7,-,N/A,,Overcast,250,2013-02-23 07:52:00
3:04 AM,30.2,26.6,86,29.90,9.0,WSW,11.5,-,N/A,,Overcast,250,2013-02-23 08:04:00
3:52 AM,30.9,27.0,85,29.92,10.0,WSW,9.2,-,N/A,,Overcast,250,2013-02-23 08:52:00
4:52 AM,30.0,23.0,75,29.93,10.0,West,13.8,-,N/A,,Overcast,260,2013-02-23 09:52:00
5:52 AM,28.9,21.9,75,29.94,10.0,West,11.5,-,N/A,,Overcast,260,2013-02-23 10:52:00
6:19 AM,28.4,21.2,74,29.92,10.0,WSW,10.4,-,N/A,,Overcast,250,2013-02-23 11:19:00
6:52 AM,28.9,21.0,72,29.95,10.0,WSW,12.7,-,N/A,,Overcast,240,2013-02-23 11:52:00
7:52 AM,28.0,21.0,75,29.96,10.0,WSW,13.8,-,N/A,,Overcast,240,2013-02-23 12:52:00
8:52 AM,28.0,19.9,72,29.97,10.0,WSW,12.7,-,N/A,,Overcast,250,2013-02-23 13:52:00
9:52 AM,28.9,19.9,69,29.96,10.0,WSW,12.7,-,N/A,,Overcast,240,2013-02-23 14:52:00
10:52 AM,30.0,19.0,64,29.96,10.0,WSW,12.7,21.9,N/A,,Overcast,250,2013-02-23 15:52:00
11:52 AM,30.0,18.0,61,29.94,10.0,WSW,13.8,-,N/A,,Overcast,250,2013-02-23 16:52:00
12:19 PM,30.2,19.4,64,29.93,10.0,WSW,17.3,21.9,N/A,,Overcast,250,2013-02-23 17:19:00
12:52 PM,30.9,19.0,61,29.95,10.0,West,15.0,-,N/A,,Overcast,260,2013-02-23 17:52:00
1:13 PM,30.2,19.4,64,29.91,10.0,WSW,16.1,-,N/A,,Overcast,240,2013-02-23 18:13:00
1:31 PM,30.2,19.4,64,29.90,10.0,West,17.3,-,N/A,,Overcast,260,2013-02-23 18:31:00
1:52 PM,30.0,19.0,64,29.93,10.0,WSW,13.8,23.0,N/A,,Overcast,250,2013-02-23 18:52:00
2:52 PM,30.0,19.0,64,29.93,10.0,West,16.1,-,N/A,,Overcast,260,2013-02-23 19:52:00
3:26 PM,30.2,19.4,64,29.89,10.0,WSW,15.0,20.7,N/A,,Overcast,250,2013-02-23 20:26:00
3:52 PM,30.0,19.9,66,29.91,10.0,WSW,11.5,-,N/A,,Overcast,240,2013-02-23 20:52:00
4:52 PM,28.9,21.0,72,29.93,10.0,WSW,11.5,-,N/A,,Overcast,250,2013-02-23 21:52:00
5:52 PM,28.9,19.9,69,29.94,10.0,WSW,10.4,-,N/A,,Overcast,250,2013-02-23 22:52:00
6:52 PM,28.9,19.9,69,29.94,10.0,West,9.2,-,N/A,,Overcast,260,2013-02-23 23:52:00
7:52 PM,28.9,19.0,67,29.95,10.0,West,8.1,-,N/A,,Overcast,280,2013-02-24 00:52:00
8:52 PM,28.0,18.0,66,29.96,10.0,West,11.5,-,N/A,,Overcast,280,2013-02-24 01:52:00
9:52 PM,28.0,19.0,69,29.96,10.0,West,9.2,-,N/A,,Overcast,260,2013-02-24 02:52:00
10:52 PM,28.0,19.0,69,29.95,10.0,West,9.2,-,N/A,,Overcast,260,2013-02-24 03:52:00
11:52 PM,27.0,19.0,72,29.94,10.0,West,9.2,-,N/A,,Overcast,280,2013-02-24 04:52:00